This demonstration page uses our WeatherBlox Daily Observations layout. Learn more.

Left ArrowRight Arrow

40.92945, -100.16068

Hourly Observations for July 15, 2019

Temp ( °F °C ) Dew Point ( °F °C ) Humidity (%) Winds ( mph kmh ) Pressure ( in mb ) Visibility ( mi km ) Precip ( " mm )
12:15 am 00:15 Clear 75 23.8 66 19 75 75 S 10 17 29.88 1012 10 16 N/A
12:35 am 00:35 Clear 75 23.7 66 18.7 74 74 S 9 15 29.88 1012 10 16 N/A
12:55 am 00:55 Clear 75 24 65 18.6 72 72 S 9 15 29.88 1012 10 16 N/A
1:15 am 01:15 Clear 74 23.5 66 18.7 75 75 S 6 9 29.88 1012 10 16 N/A
1:35 am 01:35 Clear 74 23.6 66 18.7 74 74 S 7 11 29.88 1012 10 16 N/A
1:55 am 01:55 Clear 75 23.8 65 18.6 73 73 S 5 7 29.88 1012 10 16 N/A
2:15 am 02:15 Clear 75 23.8 65 18.5 72 72 S 7 11 29.88 1012 10 16 N/A
2:35 am 02:35 Clear 74 23.4 65 18.6 75 75 S 7 11 29.88 1012 10 16 N/A
2:55 am 02:55 Clear 74 23.1 66 18.7 76 76 S 5 7 29.85 1011 10 16 N/A
3:15 am 03:15 Clear 73 22.7 66 18.8 79 79 SSW 3 6 29.88 1012 10 16 N/A
3:35 am 03:35 Clear 72 22 66 18.9 83 83 N N/A 29.88 1012 10 16 N/A
3:55 am 03:55 Clear 71 21.7 66 18.7 83 83 N N/A 29.88 1012 10 16 N/A
4:15 am 04:15 Clear 69 20.5 65 18.5 88 88 S 7 11 29.88 1012 10 16 N/A
4:35 am 04:35 Clear 69 20.7 66 18.7 88 88 SSE 9 15 29.88 1012 10 16 N/A
4:55 am 04:55 Clear 68 20.2 65 18.6 91 91 S 6 9 29.88 1012 10 16 N/A
5:15 am 05:15 Clear 67 19.7 65 18.5 93 93 S 7 11 29.88 1012 10 16 N/A
5:35 am 05:35 Clear 68 20.2 65 18.1 88 88 SSW 5 7 29.88 1012 10 16 N/A
5:55 am 05:55 Clear 67 19.3 65 18.5 95 95 N 5 7 29.94 1014 10 16 N/A
6:15 am 06:15 Clear 68 19.9 65 18.5 92 92 NE 3 6 29.88 1012 10 16 N/A
6:35 am 06:35 Sunny with Light Rain 68 20.1 65 18.5 91 91 SSE 5 7 29.88 1012 10 16 N/A
6:55 am 06:55 Sunny 69 20.4 66 18.8 91 91 SSE 5 7 29.88 1012 10 16 N/A
7:15 am 07:15 Sunny 70 21.1 66 18.7 86 86 S 6 9 29.88 1012 10 16 N/A
7:35 am 07:35 Sunny 70 21.3 66 18.7 85 85 SSE 7 11 29.88 1012 10 16 N/A
7:55 am 07:55 Sunny 71 21.6 66 19 85 85 SSE 6 9 29.88 1012 10 16 N/A
8:15 am 08:15 Sunny 72 22.4 66 19.1 82 82 SSE 7 11 29.88 1012 10 16 N/A
8:35 am 08:35 Sunny 74 23.6 67 19.6 78 78 S 5 7 29.85 1011 10 16 N/A
8:55 am 08:55 Sunny 75 24.1 67 19.7 77 77 S 5 7 29.85 1011 10 16 N/A
9:15 am 09:15 Sunny 77 24.9 68 20 74 74 S 8 13 29.85 1011 10 16 N/A
9:35 am 09:35 Sunny 78 25.4 68 19.9 72 72 S 10 17 29.85 1011 10 16 N/A
9:55 am 09:55 Sunny 79 25.9 69 20.5 72 72 SW 6 9 29.85 1011 10 16 N/A
10:15 am 10:15 Sunny 78 25.6 69 20.3 73 73 S 7 11 29.85 1011 10 16 N/A
10:35 am 10:35 Sunny 80 26.6 70 20.9 71 71 S 8 13 29.83 1010 10 16 N/A
10:55 am 10:55 Sunny 81 27 70 21.1 70 70 S 7 11 29.83 1010 10 16 N/A
11:15 am 11:15 Sunny 82 27.7 71 21.8 70 70 S 8 13 29.83 1010 10 16 N/A
11:35 am 11:35 Sunny 82 28 71 21.6 68 68 S 8 13 29.83 1010 10 16 N/A
11:55 am 11:55 Sunny 84 28.7 71 21.9 67 67 S 9 15 29.83 1010 10 16 N/A
12:15 pm 12:15 Sunny 85 29.5 72 22.4 66 66 S 8 13 29.83 1010 10 16 N/A
12:35 pm 12:35 Sunny 86 29.8 72 22.4 65 65 SSW 10 17 29.83 1010 10 16 N/A
12:55 pm 12:55 Sunny 86 30 71 21.8 61 61 S 7 11 29.83 1010 10 16 N/A
1:15 pm 13:15 Sunny 87 30.3 72 22.1 62 62 SSW 9 15 29.80 1009 10 16 N/A
1:35 pm 13:35 Sunny 87 30.3 71 21.5 59 59 S 8 13 29.80 1009 10 16 N/A
1:55 pm 13:55 Sunny 87 30.6 72 22 60 60 SSW 8 13 29.80 1009 10 16 N/A
2:15 pm 14:15 Sunny 88 31 73 22.6 61 61 S 8 13 29.77 1008 10 16 N/A
2:35 pm 14:35 Sunny 88 31 72 22 59 59 S 9 15 29.77 1008 10 16 N/A
2:55 pm 14:55 Sunny 88 31.3 72 22.3 59 59 S 9 15 29.77 1008 10 16 N/A
3:15 pm 15:15 Sunny 89 31.5 72 22.1 57 57 S 10 17 29.77 1008 10 16 N/A
3:35 pm 15:35 Sunny 89 31.6 71 21.9 56 56 SSE 12 19 29.77 1008 10 16 N/A
3:55 pm 15:55 Sunny 89 31.8 71 21.8 55 55 S 10 17 29.77 1008 10 16 N/A
4:15 pm 16:15 Sunny 89 31.8 71 21.7 55 55 S 12 19 29.74 1007 10 16 N/A
4:35 pm 16:35 Sunny 90 32 71 21.8 55 55 S 10 17 29.74 1007 10 16 N/A
4:55 pm 16:55 Sunny 90 32 72 22.1 56 56 SSE 12 19 29.74 1007 10 16 N/A
5:15 pm 17:15 Sunny 90 32 71 21.7 54 54 S 9 15 29.74 1007 10 16 N/A
5:35 pm 17:35 Sunny 90 32 71 21.7 54 54 S 8 13 29.74 1007 10 16 N/A
5:55 pm 17:55 Sunny 90 32 72 22.4 57 57 SSE 8 13 29.74 1007 10 16 N/A
6:15 pm 18:15 Sunny 89 31.9 71 21.9 55 55 S 10 17 29.74 1007 10 16 N/A
6:35 pm 18:35 Sunny 89 31.8 72 22.3 57 57 SE 7 11 29.74 1007 10 16 N/A
6:55 pm 18:55 Sunny 89 31.5 73 22.6 59 59 SSE 6 9 29.74 1007 10 16 N/A
7:15 pm 19:15 Sunny 88 31 71 21.8 58 58 SE 7 11 29.74 1007 10 16 N/A
7:35 pm 19:35 Sunny 87 30.7 71 21.9 59 59 SE 6 9 29.74 1007 10 16 N/A
7:55 pm 19:55 Sunny 86 29.9 72 22.4 64 64 SE 7 11 29.74 1007 10 16 N/A
8:15 pm 20:15 Sunny 85 29.4 73 22.5 66 66 SE 8 13 29.77 1008 10 16 N/A
8:35 pm 20:35 Sunny 84 29 71 21.7 65 65 SE 7 11 29.77 1008 10 16 N/A
8:55 pm 20:55 Partly Cloudy 83 28.3 71 21.9 68 68 ESE 8 13 29.77 1008 10 16 N/A
9:15 pm 21:15 Clear 82 27.9 73 22.6 73 73 ESE 7 11 29.77 1008 10 16 N/A
9:35 pm 21:35 Clear 82 27.9 73 22.8 74 74 ESE 9 15 29.77 1008 10 16 N/A
9:55 pm 21:55 Clear 82 27.5 74 23.1 77 77 SE 8 13 29.77 1008 10 16 N/A
10:15 pm 22:15 Clear 80 26.7 74 23.2 81 81 ESE 8 13 29.77 1008 10 16 N/A
10:35 pm 22:35 Clear 79 26.2 73 23 83 83 ESE 10 17 29.77 1008 10 16 N/A
10:55 pm 22:55 Clear 79 26.1 73 22.9 83 83 SE 8 13 29.83 1010 10 16 N/A
11:15 pm 23:15 Clear 78 25.6 73 22.7 84 84 ESE 6 9 29.83 1010 10 16 N/A
11:35 pm 23:35 Clear 78 25.5 72 22.3 83 83 SE 7 11 29.83 1010 10 16 N/A
11:55 pm 23:55 Clear 77 25 72 22.2 85 85 ESE 7 11 29.83 1010 10 16 N/A

Powered by AerisWeather